Location: Bear Valley Community Church - Hurst
(32.8460°N, 97.1828°W)
Time: 14:30:21
(UTC+00:00)

Cosmos 1092 Rocket - Visible Passes

Search period start: 03 July 2022 00:00
Search period end: 13 July 2022 00:00
Orbit: 953 x 996 km, 83.0° (Epoch: 02 July)

Date Brightness Start Highest point End Pass type
(mag) Time Alt. Az. Time Alt. Az. Time Alt. Az.
05 Jul 7.0 10:43:15 10° ESE 10:45:28 12° E 10:47:40 10° ENE visible
09 Jul 6.5 10:35:57 10° SE 10:40:17 20° E 10:44:35 10° NE visible
10 Jul 5.5 10:59:27 10° SSE 11:05:05 40° E 11:10:43 10° NNE visible
12 Jul 6.5 10:06:44 10° ESE 10:10:24 17° E 10:14:03 10° NE visible
